FW1177 Weather Reports


time (UTC)temp
C
wind
direction
speed
KPH
gust
KPH
rain 1hr
cm
rain 24hr
cm
rain mn
cm
humidity
%
barometer
mb
20260505100837 20 180 3.2 3.2 0.00 0.00 0.00 83 1033.4
20260505095936 20 198 3.2 6.4 0.00 0.00 0.00 83 1033.3
20260505093937 20 202 4.8 6.4 0.00 0.00 0.00 83 1033.6
20260505092936 20 202 3.2 6.4 0.00 0.00 0.00 82 1033.6
20260505091952 20 171 1.6 6.4 0.00 0.00 0.00 83 1033.6
20260505090938 20 204 3.2 6.4 0.00 0.00 0.00 81 1033.5
20260505084937 20 183 3.2 6.4 0.00 0.00 0.00 82 1033.9
20260505083936 20 204 1.6 6.4 0.00 0.00 0.00 81 1034.0
20260505082037 19 200 1.6 3.2 0.00 0.00 0.00 80 1034.3
20260505081937 19 202 3.2 4.8 0.00 0.00 0.00 80 1034.3
20260505080936 19 171 3.2 6.4 0.00 0.00 0.00 81 1034.4
20260505075936 19 197 3.2 4.8 0.00 0.00 0.00 81 1034.6
20260505075034 19 172 3.2 9.7 0.00 0.00 0.00 80 1034.5
20260505074036 19 166 1.6 3.2 0.00 0.00 0.00 80 1034.7
20260505073053 19 177 3.2 8.0 0.00 0.00 0.00 79 1034.5
20260505072137 19 168 0.0 3.2 0.00 0.00 0.00 79 1034.8
20260505070335 19 197 3.2 6.4 0.00 0.00 0.00 78 1034.9
20260505064435 20 189 1.6 3.2 0.00 0.00 0.00 78 1035.1
20260505064337 20 202 1.6 3.2 0.00 0.00 0.00 78 1035.2
20260505063434 20 204 3.2 6.4 0.00 0.00 0.00 78 1035.2
20260505062436 20 171 3.2 3.2 0.00 0.00 0.00 77 1035.4
20260505061436 20 201 1.6 3.2 0.00 0.00 0.00 76 1035.4
20260505061353 20 202 1.6 3.2 0.00 0.00 0.00 76 1035.5
20260505055534 20 180 1.6 4.8 0.00 0.00 0.00 76 1035.5
20260505054536 20 180 1.6 3.2 0.00 0.00 0.00 75 1035.5
20260505053537 20 202 1.6 3.2 0.00 0.00 0.00 75 1035.5
20260505053436 20 204 3.2 4.8 0.00 0.00 0.00 74 1035.5
20260505052436 20 180 1.6 3.2 0.00 0.00 0.00 74 1035.7
20260505052337 20 192 0.0 3.2 0.00 0.00 0.00 74 1035.8
20260505051338 20 180 1.6 3.2 0.00 0.00 0.00 73 1035.8
20260505050435 20 180 1.6 3.2 0.00 0.00 0.00 73 1035.8
20260505041424 20 223 1.6 3.2 0.00 0.00 0.00 71 1035.9
20260505041322 20 158 0.0 3.2 0.00 0.00 0.00 71 1036.0
20260505040324 20 202 1.6 4.8 0.00 0.00 0.00 70 1035.9
20260505034424 20 180 0.0 3.2 0.00 0.00 0.00 69 1035.9
20260505032423 20 202 1.6 1.6 0.00 0.00 0.00 66 1035.8
20260505031423 20 202 1.6 3.2 0.00 0.00 0.00 66 1036.0
20260505031338 20 173 1.6 4.8 0.00 0.00 0.00 65 1035.9
20260505030422 20 202 1.6 3.2 0.00 0.00 0.00 65 1036.0
20260505025422 21 180 1.6 3.2 0.00 0.00 0.00 64 1035.9
20260505022524 21 225 0.0 1.6 0.00 0.00 0.00 61 1035.7
20260505021621 21 157 0.0 0.0 0.00 0.00 0.00 59 1035.6
20260505020721 21 246 0.0 1.6 0.00 0.00 0.00 58 1035.5
20260505020641 21 270 0.0 0.0 0.00 0.00 0.00 58 1035.5
20260505015622 21 180 1.6 3.2 0.00 0.00 0.00 59 1035.4
20260505014622 22 157 0.0 3.2 0.00 0.00 0.00 57 1035.2
20260505014524 22 157 0.0 0.0 0.00 0.00 0.00 57 1035.3
20260505013542 22 157 0.0 0.0 0.00 0.00 0.00 57 1035.2
20260505012622 22 157 0.0 1.6 0.00 0.00 0.00 56 1035.1
20260505010640 23 157 1.6 1.6 0.00 0.00 0.00 55 1035.1
20260505010523 23 157 1.6 1.6 0.00 0.00 0.00 54 1035.2
20260505005521 23 188 1.6 3.2 0.00 0.00 0.00 54 1035.1
20260505005422 23 180 1.6 3.2 0.00 0.00 0.00 54 1035.0
20260505005324 23 180 1.6 3.2 0.00 0.00 0.00 54 1035.0
20260505004422 23 166 1.6 6.4 0.00 0.00 0.00 54 1035.1
20260505003423 23 202 1.6 3.2 0.00 0.00 0.00 53 1035.2
20260505002423 24 202 3.2 4.8 0.00 0.00 0.00 52 1035.4
20260505001521 24 187 1.6 4.8 0.00 0.00 0.00 51 1035.3
20260505000523 24 202 3.2 4.8 0.00 0.00 0.00 51 1035.3
20260504234524 25 196 3.2 6.4 0.00 0.00 0.00 50 1035.6
20260504233540 25 198 3.2 8.0 0.00 0.00 0.00 48 1035.7
20260504232623 25 195 3.2 8.0 0.00 0.00 0.00 49 1035.9
20260504232524 25 194 4.8 8.0 0.00 0.00 0.00 50 1035.9
20260504231522 25 211 3.2 4.8 0.00 0.00 0.00 48 1035.9
20260504230523 25 209 3.2 4.8 0.00 0.00 0.00 49 1035.9
20260504224637 25 158 4.8 9.7 0.00 0.00 0.00 49 1036.1
20260504223724 25 196 3.2 6.4 0.00 0.00 0.00 49 1036.3
20260504222821 25 223 1.6 3.2 0.00 0.00 0.00 47 1036.5
20260504222723 25 200 3.2 6.4 0.00 0.00 0.00 48 1036.4
20260504221723 25 206 4.8 8.0 0.00 0.00 0.00 46 1036.7
20260504220722 25 161 8.0 16.1 0.00 0.00 0.00 47 1036.5
20260504215722 25 209 4.8 6.4 0.00 0.00 0.00 46 1036.6
20260504214741 25 191 4.8 9.7 0.00 0.00 0.00 47 1036.9
20260504213822 25 202 4.8 6.4 0.00 0.00 0.00 46 1037.1
20260504212825 25 190 3.2 8.0 0.00 0.00 0.00 48 1037.2
20260504211823 25 205 3.2 6.4 0.00 0.00 0.00 47 1037.3
20260504205921 25 225 0.0 1.6 0.00 0.00 0.00 49 1037.7
20260504204923 25 180 4.8 6.4 0.00 0.00 0.00 47 1037.8
20260504203924 25 201 6.4 12.9 0.00 0.00 0.00 47 1038.1
20260504203822 25 202 3.2 6.4 0.00 0.00 0.00 46 1038.2
20260504202922 25 184 6.4 11.3 0.00 0.00 0.00 46 1038.4
20260504201938 25 177 4.8 6.4 0.00 0.00 0.00 47 1038.5
20260504201021 25 163 1.6 4.8 0.00 0.00 0.00 45 1038.8
20260504200024 25 202 4.8 6.4 0.00 0.00 0.00 46 1038.9
20260504195038 26 198 3.2 6.4 0.00 0.00 0.00 46 1039.1
20260504194122 25 202 3.2 4.8 0.00 0.00 0.00 44 1039.4
20260504193221 26 209 4.8 8.0 0.00 0.00 0.00 44 1039.4
20260504191237 25 169 8.0 17.7 0.00 0.00 0.00 46 1039.8
20260504190224 25 225 3.2 4.8 0.00 0.00 0.00 44 1039.9
20260504185225 25 207 3.2 6.4 0.00 0.00 0.00 46 1039.9
20260504184321 25 186 3.2 4.8 0.00 0.00 0.00 47 1040.3
20260504183339 25 202 3.2 4.8 0.00 0.00 0.00 47 1040.4
20260504183225 25 184 6.4 8.0 0.00 0.00 0.00 47 1040.4
20260504181324 24 157 6.4 9.7 0.00 0.00 0.00 48 1040.7
20260504180322 24 200 6.4 9.7 0.00 0.00 0.00 48 1040.9
20260504175322 24 216 3.2 6.4 0.00 0.00 0.00 48 1041.2
20260504175222 24 220 4.8 6.4 0.00 0.00 0.00 48 1041.4
20260504174238 24 184 6.4 9.7 0.00 0.00 0.00 48 1041.1
20260504173324 24 195 3.2 6.4 0.00 0.00 0.00 49 1041.4
20260504171423 23 210 4.8 6.4 0.00 0.00 0.00 49 1041.6
20260504170425 23 202 3.2 6.4 0.00 0.00 0.00 50 1041.6
20260504140822 18 225 1.6 4.8 0.00 0.00 0.00 68 1042.7
20260504110122 12 225 0.0 0.0 0.00 0.00 0.00 90 1041.6